Weather History for Moorhead, MN

Change the Weather History Date:

Monday, January 28, 2013

  Actual Average (KFAR) Record (KFAR)
Temperature  
Mean Temperature 27 °F 10 °F  
Max Temperature 30 °F 19 °F 41 °F (1927)
Min Temperature 24 °F 0 °F -33 °F (1966)
Degree Days  
Heating Degree Days 38 55  
Month to date heating degree days 1562  
Since 1 July heating degree days 5102  
Cooling Degree Days 0 0  
Month to date cooling degree days 0  
Year to date cooling degree days 0  
Moisture  
Dew Point 28 °F    
Average Humidity 100    
Maximum Humidity 100    
Minimum Humidity 93    
Precipitation  
Precipitation 0.30 in 0.02 in 1.17 in (2014)
Month to date precipitation 0.64  
Year to date precipitation 0.64  
Snow  
Snow 0.00 in 0.30 in 6.00 in (1996)
Month to date snowfall 10.3  
Since 1 July snowfall 30.1  
Snow Depth -    
Sea Level Pressure  
Sea Level Pressure 29.78 in    
Wind  
Wind Speed 3 mph (WSW)    
Max Wind Speed 9 mph    
Max Gust Speed -    
Visibility 2 miles    
Events Fog , Rain , Snow    
T = Trace of Precipitation, MM = Missing Value Source: NWS Daily Summary

Daily Weather History Graph

Daily Weather History Graph

Search for Another Location

Airport:

Trip Planner

Search our weather history database for the weather conditions in past years. The results will help you decide how hot, cold, wet, or windy it might be!

Date:

Astronomy

Jan. 28, 2013 Rise Set
Actual Time 7:55 AM CST 5:24 PM CST
Civil Twilight 7:22 AM CST 5:57 PM CST
Nautical Twilight 6:46 AM CST 6:33 PM CST
Astronomical Twilight 6:10 AM CST 7:09 PM CST
Moon 7:31 PM CST (1/28) 8:12 AM CST (1/28)
Length of Visible Light 10h 34m
Length of Day
9h 28m
Full, 98% of the Moon is Illuminated
Jan 28
Full
Feb 3
Last Quarter
Feb 10
New
Feb 17
First Quarter
Feb 25
Full

Hourly Weather History & Observations

Time (CST) Temp. Windchill Dew Point Humidity Pressure Visibility Wind Dir Wind Speed Gust Speed Precip Events Conditions
12:14 AM 30.2 °F 26.7 °F 28.4 °F 93% 29.78 in 7.0 mi ESE 3.5 mph - N/A   Overcast
12:35 AM 28.4 °F - 28.4 °F 100% 29.79 in 5.0 mi Calm Calm - N/A   Overcast
12:55 AM 28.4 °F 24.6 °F 28.4 °F 100% 29.79 in 5.0 mi SSE 3.5 mph - N/A   Overcast
1:14 AM 28.4 °F 24.6 °F 28.4 °F 100% 29.79 in 5.0 mi South 3.5 mph - N/A   Overcast
1:35 AM 30.2 °F 26.7 °F 30.2 °F 100% 29.79 in 5.0 mi South 3.5 mph - N/A   Overcast
1:55 AM 28.4 °F 24.6 °F 28.4 °F 100% 29.79 in 3.0 mi South 3.5 mph - N/A   Overcast
2:14 AM 28.4 °F 24.6 °F 28.4 °F 100% 29.78 in 2.0 mi SSE 3.5 mph - N/A   Overcast
2:35 AM 28.4 °F 23.3 °F 28.4 °F 100% 29.78 in 1.8 mi SE 4.6 mph - N/A   Overcast
2:55 AM 28.4 °F 24.6 °F 28.4 °F 100% 29.78 in 1.5 mi SE 3.5 mph - N/A   Overcast
3:14 AM 28.4 °F - 28.4 °F 100% 29.78 in 1.2 mi Calm Calm - N/A   Overcast
3:35 AM 28.4 °F - 28.4 °F 100% 29.78 in 1.0 mi Calm Calm - N/A   Overcast
3:55 AM 30.2 °F - 30.2 °F 100% 29.78 in 1.0 mi Calm Calm - N/A   Overcast
4:15 AM 30.2 °F 25.4 °F 30.2 °F 100% 29.76 in 1.0 mi ESE 4.6 mph - N/A   Overcast
4:35 AM 30.2 °F 25.4 °F 30.2 °F 100% 29.77 in 1.0 mi South 4.6 mph - N/A   Overcast
4:54 AM 30.2 °F 25.4 °F 30.2 °F 100% 29.79 in 1.2 mi South 4.6 mph - N/A   Overcast
5:15 AM 30.2 °F 25.4 °F 30.2 °F 100% 29.80 in 1.5 mi South 4.6 mph - N/A   Overcast
5:35 AM 30.2 °F 25.4 °F 30.2 °F 100% 29.80 in 1.0 mi SSW 4.6 mph - N/A   Overcast
5:54 AM 30.2 °F 26.7 °F 30.2 °F 100% 29.79 in 0.8 mi South 3.5 mph - N/A   Overcast
6:35 AM 30.2 °F - 30.2 °F 100% 29.79 in 1.2 mi Calm Calm - N/A   Overcast
6:54 AM 30.2 °F - 30.2 °F 100% 29.80 in 1.2 mi Calm Calm - N/A   Light Freezing Rain
7:15 AM 30.2 °F 24.3 °F 30.2 °F 100% 29.79 in 0.8 mi South 5.8 mph - N/A   Overcast
7:35 AM 30.2 °F 24.3 °F 30.2 °F 100% 29.78 in 0.8 mi South 5.8 mph - N/A   Overcast
7:54 AM 30.2 °F 26.7 °F 30.2 °F 100% 29.77 in 0.8 mi South 3.5 mph - N/A   Overcast
8:15 AM 30.2 °F 26.7 °F 30.2 °F 100% 29.77 in 0.5 mi South 3.5 mph - N/A Fog Light Freezing Fog
8:34 AM 30.2 °F 25.4 °F 30.2 °F 100% 29.79 in 0.5 mi SSW 4.6 mph - N/A Fog Light Freezing Fog
8:55 AM 30.2 °F 24.3 °F 30.2 °F 100% 29.81 in 0.5 mi SSW 5.8 mph - N/A Fog Light Freezing Fog
9:15 AM 30.2 °F 25.4 °F 30.2 °F 100% 29.81 in 0.2 mi SW 4.6 mph - N/A Fog Light Freezing Fog
9:34 AM 30.2 °F 26.7 °F 30.2 °F 100% 29.80 in 0.2 mi SSW 3.5 mph - N/A Fog Light Freezing Fog
9:55 AM 30.2 °F 26.7 °F 30.2 °F 100% 29.80 in 0.2 mi SW 3.5 mph - N/A Fog Light Freezing Fog
10:15 AM 30.2 °F - 30.2 °F 100% 29.80 in 0.2 mi Calm Calm - N/A Fog Light Freezing Fog
10:34 AM 30.2 °F - 30.2 °F 100% 29.80 in 0.2 mi Calm Calm - N/A Fog Light Freezing Fog
10:55 AM 30.2 °F 25.4 °F 30.2 °F 100% 29.81 in 0.5 mi West 4.6 mph - N/A Fog Light Freezing Fog
11:15 AM 30.2 °F 25.4 °F 30.2 °F 100% 29.81 in 1.0 mi West 4.6 mph - N/A   Overcast
11:34 AM 30.2 °F 24.3 °F 30.2 °F 100% 29.82 in 1.2 mi WNW 5.8 mph - N/A   Overcast
11:55 AM 28.4 °F 23.3 °F 28.4 °F 100% 29.81 in 1.8 mi West 4.6 mph - N/A   Overcast
12:14 PM 28.4 °F 24.6 °F 28.4 °F 100% 29.80 in 2.5 mi West 3.5 mph - N/A   Light Freezing Rain
12:35 PM 28.4 °F 24.6 °F 28.4 °F 100% 29.81 in 1.8 mi WSW 3.5 mph - N/A Rain Light Freezing Rain
12:55 PM 28.4 °F - 28.4 °F 100% 29.79 in 1.8 mi Calm Calm - N/A Rain Light Freezing Rain
1:14 PM 28.4 °F - 28.4 °F 100% 29.78 in 1.8 mi Calm Calm - 0.02 in Rain Light Freezing Rain
1:35 PM 28.4 °F - 28.4 °F 100% 29.78 in 1.5 mi Calm Calm - 0.04 in Rain Light Freezing Rain
1:55 PM 28.4 °F - 28.4 °F 100% 29.78 in 2.0 mi Calm Calm - 0.06 in Rain Light Freezing Rain
2:14 PM 28.4 °F 24.6 °F 28.4 °F 100% 29.78 in 2.0 mi West 3.5 mph - 0.01 in Rain Light Freezing Rain
2:35 PM 28.4 °F 23.3 °F 28.4 °F 100% 29.79 in 2.5 mi West 4.6 mph - 0.01 in Rain Light Freezing Rain
2:55 PM 28.4 °F 23.3 °F 28.4 °F 100% 29.79 in 1.5 mi West 4.6 mph - 0.01 in Rain Light Freezing Rain
3:14 PM 28.4 °F 23.3 °F 28.4 °F 100% 29.80 in 1.8 mi West 4.6 mph - N/A   Overcast
3:35 PM 28.4 °F 23.3 °F 28.4 °F 100% 29.79 in 1.5 mi WNW 4.6 mph - N/A   Overcast
3:55 PM 28.4 °F 24.6 °F 28.4 °F 100% 29.79 in 2.0 mi WNW 3.5 mph - N/A Rain Light Freezing Rain
4:14 PM 28.4 °F - 28.4 °F 100% 29.78 in 1.8 mi Calm Calm - 0.01 in Rain Light Freezing Rain
4:35 PM 28.4 °F - 28.4 °F 100% 29.78 in 1.0 mi Calm Calm - 0.01 in   Overcast
4:54 PM 28.4 °F - 28.4 °F 100% 29.78 in 0.8 mi Calm Calm - 0.02 in Snow Light Snow
5:15 PM 26.6 °F - 26.6 °F 100% 29.80 in 0.2 mi Calm Calm - 0.02 in Snow Snow
5:35 PM 26.6 °F - 26.6 °F 100% 29.78 in 0.5 mi Calm Calm - 0.04 in Snow Snow
5:54 PM 26.6 °F - 26.6 °F 100% 29.78 in 0.8 mi Calm Calm - 0.05 in Snow Snow
6:15 PM 26.6 °F - 26.6 °F 100% 29.78 in 0.8 mi Calm Calm - 0.02 in Snow Snow
6:35 PM 26.6 °F 22.6 °F 26.6 °F 100% 29.78 in 0.8 mi West 3.5 mph - 0.03 in Snow Snow
6:54 PM 26.6 °F 22.6 °F 26.6 °F 100% 29.77 in 0.8 mi NNW 3.5 mph - 0.05 in Snow Snow
7:15 PM 26.6 °F 22.6 °F 26.6 °F 100% 29.77 in 1.0 mi NW 3.5 mph - 0.02 in Snow Light Snow
7:35 PM 26.6 °F 20.0 °F 26.6 °F 100% 29.78 in 1.0 mi NW 5.8 mph - 0.03 in Snow Snow
7:54 PM 26.6 °F 21.2 °F 26.6 °F 100% 29.78 in 1.0 mi WNW 4.6 mph - 0.05 in   Overcast
8:15 PM 26.6 °F 22.6 °F 26.6 °F 100% 29.78 in 1.0 mi NW 3.5 mph - 0.01 in Snow Snow
8:35 PM 26.6 °F 20.0 °F 26.6 °F 100% 29.77 in 1.0 mi NNW 5.8 mph - 0.03 in Snow Snow
8:54 PM 26.6 °F 19.1 °F 26.6 °F 100% 29.76 in 1.0 mi NNW 6.9 mph - 0.03 in Snow Snow
9:15 PM 26.6 °F 17.5 °F 26.6 °F 100% 29.75 in 1.0 mi North 9.2 mph - 0.01 in Snow Light Snow
9:34 PM 26.6 °F 17.5 °F 26.6 °F 100% 29.75 in 1.2 mi NNW 9.2 mph - 0.01 in Snow Light Snow
9:55 PM 24.8 °F 15.3 °F 24.8 °F 100% 29.75 in 1.8 mi North 9.2 mph - 0.01 in Snow Light Snow
10:15 PM 24.8 °F 16.9 °F 24.8 °F 100% 29.73 in 1.8 mi North 6.9 mph - 0.01 in   Overcast
10:34 PM 24.8 °F 17.9 °F 24.8 °F 100% 29.72 in 1.8 mi North 5.8 mph - 0.01 in Snow Light Snow
10:55 PM 24.8 °F 19.1 °F 24.8 °F 100% 29.71 in 1.8 mi NNE 4.6 mph - 0.01 in Snow Light Snow
11:15 PM 26.6 °F 20.0 °F 26.6 °F 100% 29.71 in 1.2 mi North 5.8 mph - N/A Snow Light Snow
11:34 PM 24.8 °F 17.9 °F 24.8 °F 100% 29.71 in 1.8 mi North 5.8 mph - 0.01 in Snow Light Snow
11:55 PM 24.8 °F 16.1 °F 24.8 °F 100% 29.71 in 1.8 mi NNW 8.1 mph - 0.01 in Snow Light Snow